AIC2031 VOBL-EDDM

Flight info

Callsign AIC2031
Flight time N/A
Altitude 36000
Route OPAMO7B OPAMO W56 BBB/N0496F370 G208 APANO/N0499F360 G451 AAE Z8 BEPDA/N0498F380 Z8 VIKIT P628 RK G202 ZB L750 RANAH B449 INRAK/N0489F400 B449 DUKAN L850 ADEKI N644 TETRO M10 SARPI UM10 GOKPA UL746 ODERO L746 LUGEB DCT MOPUG DCT SUNIS DCT AMADI Q113 NAPSA
Aircraft A359/H-SADE2E3GHIJ1J2J3J4J5M1P2RWXYZ/LB1D1

Departure

Time 2026-05-06 23:26
Airport Kempegowda International Airport Bengaluru (VOBL)

Arrival

Time N/A
Airport Munich Airport (EDDM)
Time Latitude Longitude Altitude Speed Heading
2026-05-06 22:59 13.20091 77.71661 3026 ft 0 kts 180°
2026-05-06 23:17 13.20093 77.71661 3017 ft 1 kts 180°
2026-05-06 23:18 13.20103 77.71661 3024 ft 3 kts 180°
2026-05-06 23:18 13.20124 77.71661 3017 ft 3 kts 180°
2026-05-06 23:18 13.20144 77.71661 3025 ft 3 kts 180°
2026-05-06 23:18 13.20159 77.71661 3023 ft 2 kts 178°
2026-05-06 23:19 13.20176 77.71659 3027 ft 3 kts 137°
2026-05-06 23:19 13.20184 77.71644 3026 ft 3 kts 90°
2026-05-06 23:19 13.20183 77.71626 3026 ft 1 kts 90°
2026-05-06 23:19 13.20183 77.71624 3025 ft 1 kts 90°
2026-05-06 23:22 13.20183 77.71634 3025 ft 3 kts 90°
2026-05-06 23:22 13.20183 77.71677 3026 ft 9 kts 90°
2026-05-06 23:22 13.20184 77.71753 3021 ft 12 kts 78°
2026-05-06 23:22 13.20261 77.71787 3025 ft 15 kts
2026-05-06 23:23 13.20378 77.71788 3018 ft 18 kts
2026-05-06 23:23 13.20496 77.71796 3020 ft 14 kts 30°
2026-05-06 23:23 13.20519 77.71879 3021 ft 12 kts 88°
2026-05-06 23:23 13.20519 77.71965 3025 ft 12 kts 90°
2026-05-06 23:24 13.20519 77.72052 3025 ft 12 kts 90°
2026-05-06 23:24 13.20518 77.72138 3025 ft 12 kts 90°
2026-05-06 23:24 13.20517 77.72226 3026 ft 12 kts 90°
2026-05-06 23:24 13.20559 77.72284 3018 ft 11 kts 11°
2026-05-06 23:25 13.20633 77.72285 3024 ft 11 kts 358°
2026-05-06 23:25 13.20684 77.72245 3018 ft 9 kts 287°
2026-05-06 23:25 13.20690 77.72177 3018 ft 10 kts 270°
2026-05-06 23:25 13.20691 77.72045 3017 ft 40 kts 270°
2026-05-06 23:26 13.20695 77.71560 3017 ft 94 kts 270°
2026-05-06 23:26 13.20702 77.70719 3026 ft 140 kts 270°
2026-05-06 23:26 13.20713 77.69576 3047 ft 176 kts 269°
2026-05-06 23:26 13.20723 77.68399 3722 ft 156 kts 266°
2026-05-06 23:27 13.20843 77.67245 3864 ft 176 kts 292°
2026-05-06 23:27 13.21581 77.66231 4145 ft 178 kts 313°
2026-05-06 23:27 13.22396 77.65278 4581 ft 178 kts 308°
2026-05-06 23:27 13.23152 77.64262 4950 ft 183 kts 305°
2026-05-06 23:28 13.23896 77.63138 5110 ft 198 kts 303°
2026-05-06 23:28 13.24658 77.61891 5279 ft 215 kts 302°
2026-05-06 23:28 13.25461 77.60524 5442 ft 233 kts 301°
2026-05-06 23:28 13.26321 77.59030 5562 ft 253 kts 301°
2026-05-06 23:29 13.27244 77.57412 5802 ft 271 kts 300°
2026-05-06 23:29 13.28219 77.55694 6090 ft 284 kts 301°
2026-05-06 23:29 13.29311 77.53979 6550 ft 289 kts 312°
2026-05-06 23:29 13.30880 77.52743 7135 ft 284 kts 339°
2026-05-06 23:30 13.32788 77.52361 7728 ft 280 kts
2026-05-06 23:30 13.34640 77.52890 8301 ft 278 kts 31°
2026-05-06 23:30 13.36269 77.53955 8932 ft 279 kts 33°
2026-05-06 23:30 13.37924 77.55009 9555 ft 281 kts 31°
2026-05-06 23:31 13.39602 77.56044 10157 ft 284 kts 31°
2026-05-06 23:31 13.41346 77.57106 10420 ft 299 kts 31°
2026-05-06 23:31 13.43190 77.58222 10634 ft 316 kts 31°
2026-05-06 23:31 13.45131 77.59393 10840 ft 331 kts 30°
2026-05-06 23:32 13.47158 77.60614 11048 ft 345 kts 30°
2026-05-06 23:32 13.49325 77.61764 11289 ft 355 kts 22°
2026-05-06 23:32 13.51728 77.62415 11728 ft 360 kts
2026-05-06 23:32 13.54237 77.62373 12208 ft 364 kts 351°
2026-05-06 23:33 13.56665 77.61620 12779 ft 366 kts 337°
2026-05-06 23:33 13.58970 77.60494 13320 ft 368 kts 334°
2026-05-06 23:33 13.61267 77.59305 13782 ft 372 kts 334°
2026-05-06 23:33 13.63591 77.58102 14146 ft 377 kts 334°
2026-05-06 23:34 13.65945 77.56891 14548 ft 380 kts 334°
2026-05-06 23:34 13.68314 77.55677 14981 ft 381 kts 334°
2026-05-06 23:34 13.70695 77.54458 15419 ft 383 kts 334°
2026-05-06 23:34 13.73087 77.53236 15832 ft 385 kts 334°
2026-05-06 23:35 13.75495 77.52006 16248 ft 387 kts 334°
2026-05-06 23:35 13.77916 77.50769 16638 ft 390 kts 333°
2026-05-06 23:35 13.80352 77.49525 17036 ft 392 kts 333°
2026-05-06 23:35 13.82803 77.48274 17436 ft 394 kts 333°
2026-05-06 23:36 13.85263 77.47017 17838 ft 396 kts 333°
2026-05-06 23:36 13.87739 77.45752 18211 ft 398 kts 333°
2026-05-06 23:36 13.90225 77.44481 18503 ft 401 kts 333°
2026-05-06 23:36 13.92741 77.43195 18751 ft 405 kts 333°
2026-05-06 23:37 13.95272 77.41901 19066 ft 407 kts 333°
2026-05-06 23:37 13.97815 77.40601 19394 ft 409 kts 333°
2026-05-06 23:37 14.00367 77.39295 19702 ft 411 kts 333°
2026-05-06 23:37 14.02936 77.37981 19999 ft 413 kts 333°
2026-05-06 23:38 14.05516 77.36660 20300 ft 415 kts 333°
2026-05-06 23:38 14.08112 77.35332 20597 ft 418 kts 333°
2026-05-06 23:38 14.10721 77.33996 20895 ft 420 kts 333°
2026-05-06 23:38 14.13342 77.32653 21200 ft 422 kts 333°
2026-05-06 23:39 14.15977 77.31303 21502 ft 424 kts 333°
2026-05-06 23:39 14.18625 77.29946 21776 ft 426 kts 333°
2026-05-06 23:39 14.21286 77.28582 22081 ft 429 kts 333°
2026-05-06 23:39 14.23963 77.27210 22373 ft 430 kts 333°
2026-05-06 23:40 14.26605 77.25854 22771 ft 430 kts 333°
2026-05-06 23:40 14.29284 77.24480 23074 ft 432 kts 333°
2026-05-06 23:40 14.31984 77.23095 23318 ft 434 kts 333°
2026-05-06 23:40 14.34733 77.21684 23580 ft 437 kts 333°
2026-05-06 23:41 14.37421 77.20304 23807 ft 439 kts 333°
2026-05-06 23:41 14.40160 77.18897 24056 ft 440 kts 333°
2026-05-06 23:41 14.42907 77.17486 24305 ft 442 kts 333°
2026-05-06 23:41 14.45666 77.16069 24551 ft 444 kts 333°
2026-05-06 23:42 14.48434 77.14646 24810 ft 446 kts 333°
2026-05-06 23:42 14.51254 77.13196 25072 ft 448 kts 333°
2026-05-06 23:42 14.54051 77.11757 25338 ft 450 kts 333°
2026-05-06 23:42 14.56856 77.10314 25624 ft 452 kts 333°
2026-05-06 23:43 14.59675 77.08969 25946 ft 452 kts 337°
2026-05-06 23:43 14.62600 77.07783 26333 ft 453 kts 338°
2026-05-06 23:43 14.65571 77.06665 26611 ft 456 kts 339°
2026-05-06 23:43 14.68572 77.05577 26884 ft 459 kts 340°
2026-05-06 23:44 14.71597 77.04493 27178 ft 461 kts 340°
2026-05-06 23:44 14.74675 77.03387 27480 ft 464 kts 339°
2026-05-06 23:44 14.77730 77.02283 27775 ft 466 kts 339°
2026-05-06 23:44 14.80799 77.01165 28067 ft 469 kts 339°
2026-05-06 23:45 14.83881 77.00037 28368 ft 471 kts 339°
2026-05-06 23:45 14.86937 76.98915 28644 ft 474 kts 339°
2026-05-06 23:45 14.90051 76.97769 28912 ft 476 kts 339°
2026-05-06 23:45 14.93181 76.96618 29189 ft 479 kts 339°
2026-05-06 23:46 14.96328 76.95459 29467 ft 481 kts 339°
2026-05-06 23:46 14.99489 76.94295 29726 ft 484 kts 339°
2026-05-06 23:46 15.02664 76.93126 29974 ft 486 kts 339°
2026-05-06 23:46 15.05858 76.91950 30200 ft 488 kts 339°
2026-05-06 23:47 15.09061 76.90771 30418 ft 490 kts 339°
2026-05-06 23:47 15.12275 76.89572 30627 ft 491 kts 337°
2026-05-06 23:47 15.15369 76.88074 30833 ft 492 kts 329°
2026-05-06 23:47 15.18219 76.86105 31041 ft 492 kts 320°
2026-05-06 23:48 15.20808 76.83793 31257 ft 492 kts 317°
2026-05-06 23:48 15.23318 76.81381 31459 ft 493 kts 315°
2026-05-06 23:48 15.25797 76.78911 31670 ft 495 kts 315°
2026-05-06 23:48 15.28258 76.76422 31919 ft 495 kts 314°
2026-05-06 23:49 15.30721 76.73925 32111 ft 496 kts 314°
2026-05-06 23:49 15.33195 76.71423 32312 ft 497 kts 315°
2026-05-06 23:49 15.35673 76.68928 32583 ft 497 kts 315°
2026-05-06 23:49 15.38152 76.66441 32861 ft 496 kts 315°